EDT,Max TemperatureF,Mean TemperatureF,Min TemperatureF,Max Dew PointF,MeanDew PointF,Min DewpointF,Max Humidity, Mean Humidity, Min Humidity, Max Sea Level PressureIn, Mean Sea Level PressureIn, Min Sea Level PressureIn, Max VisibilityMiles, Mean VisibilityMiles, Min VisibilityMiles, Max Wind SpeedMPH, Mean Wind SpeedMPH, Max Gust SpeedMPH,PrecipitationIn, CloudCover, Events, WindDirDegrees
2013-10-1,75,60,46,55,49,43,93,73,36,29.97,29.91,29.83,10,8,0,10,2,16,0.00,2,,248
2013-10-2,77,64,51,55,53,48,94,70,44,29.93,29.85,29.80,10,10,2,16,5,22,0.00,1,,247
2013-10-3,75,62,50,54,48,43,88,65,34,30.07,30.02,29.93,10,10,10,10,4,17,0.00,0,,259
2013-10-4,68,56,44,52,48,39,93,73,49,30.09,30.06,30.03,10,10,10,6,1,,0.00,2,,239
2013-10-5,62,60,57,52,46,39,82,65,48,30.12,30.09,30.05,10,10,10,10,3,,0.00,8,,64
2013-10-6,57,52,48,52,42,34,93,73,47,30.25,30.20,30.12,10,8,2,16,7,21,0.04,8,,62
2013-10-7,71,60,50,64,53,46,94,85,67,30.15,29.94,29.72,10,7,2,29,8,43,0.00,8,,75
2013-10-8,57,48,39,46,41,36,87,75,66,30.37,30.12,29.88,10,10,10,13,6,,0.00,0,,237
2013-10-9,62,48,33,43,37,30,93,73,39,30.48,30.41,30.36,10,8,0,7,1,,0.00,2,,29
2013-10-10,62,52,41,48,42,37,93,75,39,30.36,30.27,30.18,10,8,0,8,2,,0.00,2,,233
2013-10-11,66,55,44,50,45,41,93,77,46,30.18,30.15,30.12,10,10,0,5,0,,0.00,1,,34
2013-10-12,46,45,44,43,41,39,93,86,81,30.27,30.21,30.18,10,10,9,0,0,,0.00,0,,-1
2013-10-13,55,50,44,46,45,41,87,74,63,30.45,30.40,30.38,10,10,10,6,3,,0.00,7,,85
2013-10-14,64,52,39,48,43,37,93,73,52,30.38,30.30,30.22,10,9,0,10,3,,0.00,4,,234
2013-10-15,62,56,50,52,49,43,88,74,59,30.27,30.22,30.18,10,10,10,12,2,17,0.00,7,,81
2013-10-16,57,52,48,50,48,45,93,79,67,30.17,30.05,29.90,10,10,10,12,1,,0.00,4,,61
2013-10-17,71,60,48,52,47,43,88,69,35,29.89,29.80,29.70,10,10,7,12,4,17,0.00,3,,255
2013-10-18,64,56,48,52,45,34,94,69,45,29.87,29.71,29.59,10,10,5,17,7,29,0.07,5,,260
2013-10-19,62,52,41,43,38,34,81,59,42,29.93,29.85,29.72,10,10,10,12,5,16,0.00,1,,209
2013-10-20,59,52,44,45,35,28,82,54,31,29.98,29.79,29.65,10,10,10,21,10,29,0.00,2,,236
2013-10-21,62,50,37,43,37,32,87,63,39,30.08,30.01,29.94,10,10,10,14,4,16,0.00,0,,233
2013-10-22,55,48,42,48,42,30,82,71,51,29.93,29.79,29.70,10,10,10,10,7,16,0.00,2,,221
2013-10-23,51,44,37,34,30,27,87,59,38,29.76,29.67,29.57,10,10,10,10,4,,0.00,0,,248
2013-10-24,48,42,37,34,28,25,81,57,43,29.84,29.72,29.61,10,10,9,23,10,31,0.00,4,,251
2013-10-25,46,40,33,32,26,21,87,63,37,30.08,29.98,29.85,10,10,10,20,6,26,0.00,3,,264
2013-10-26,48,38,28,30,27,23,86,59,40,30.09,29.97,29.82,10,10,10,15,5,23,0.00,2,,217
2013-10-27,51,43,33,32,28,23,75,53,35,30.01,29.84,29.75,10,10,10,17,7,25,0.00,3,,240
2013-10-28,53,42,28,34,26,18,75,56,39,30.32,30.11,30.00,10,10,10,24,7,31,0.00,3,,256
2013-10-29,46,34,23,25,18,10,86,59,23,30.42,30.36,30.32,10,10,10,9,1,,0.00,0,,231
2013-10-30,46,37,28,30,26,19,87,66,50,30.32,30.23,30.16,10,10,4,14,3,18,0.00,2,,253
2013-10-31,59,44,30,55,38,27,100,89,81,30.21,30.04,29.72,10,6,0,12,1,22,0.06,7,,229